Date String (YYYY-MM-DD hh:mm:ss) UTC,Instrument flags,absolute air pressure of the measurement (hPa),sample flow rate (lpm),inlet stack bypass flow (lpm),air temperature of the measurement (°C),ambient temperature measured by the external sensor (°C),aerosol sample conditioner tube jacket temperature (°C),OPC LED temperature (°C),internal box temperature (°C),relative humidity of the measurement (%),span deviation,mass concentration of particles derived from Lorenz-Mie calculation of OPC scattering (μg/m³),mass concentration of particles derived from Lorenz-Mie calculation of OPC scattering (μg/m³),mass concentration of particles derived from Lorenz-Mie calculation of OPC scattering (μg/m³)
DateTimeUTC,F1_M11,P_M11,Q1_M11,Q2_M11,T1_M11,T2_M11,T3_M11,T4_M11,T5_M11,U1_M11,ZSPAN_M11,X0_M11,X2_M11,X1_M11
2023-11-01 15:00:00,SystemResetWarning,0832.9,5.01,000.00,021.7,020.8,000.0,030.0,023.1,12.4,0000.0,0005.41,0001.79,0001.56
2023-11-01 15:01:00,SystemResetWarning,0833.0,5.01,000.00,021.7,020.8,000.0,030.0,023.1,12.5,0000.0,0006.21,0001.86,0001.57
2023-11-01 15:02:00,SystemResetWarning,0833.2,5.00,000.00,021.7,020.8,000.0,030.0,023.1,12.3,0000.0,0005.91,0001.85,0001.56
2023-11-01 15:03:00,SystemResetWarning,0833.5,4.99,000.00,021.7,020.8,000.0,030.1,023.1,12.2,0000.0,0006.71,0001.80,0001.54
2023-11-01 15:04:00,SystemResetWarning,0833.1,4.99,000.00,021.7,020.8,000.0,030.1,023.1,12.3,0000.0,0006.82,0001.82,0001.50
2023-11-01 15:05:00,SystemResetWarning,0833.0,4.99,000.00,021.7,020.8,000.0,030.1,023.1,12.5,0000.0,0005.56,0001.85,0001.49
2023-11-01 15:06:00,SystemResetWarning,0832.9,5.00,000.00,021.7,020.8,000.0,030.1,023.1,12.6,0000.0,0005.70,0001.90,0001.51
2023-11-01 15:07:00,SystemResetWarning,0833.1,5.01,000.00,021.7,020.8,000.0,030.1,023.1,12.0,0000.0,0005.14,0001.96,0001.53
2023-11-01 15:08:00,SystemResetWarning,0833.2,5.01,000.00,021.7,020.8,000.0,030.1,023.2,12.2,0000.0,0005.08,0002.02,0001.56
2023-11-01 15:09:00,SystemResetWarning,0833.1,5.00,000.00,021.7,020.9,000.0,030.1,023.2,11.5,0000.0,0005.16,0002.08,0001.63
2023-11-01 15:10:00,SystemResetWarning,0833.1,5.00,000.00,021.7,020.9,000.0,030.1,023.2,11.3,0000.0,0005.24,0002.12,0001.65
2023-11-01 15:11:00,SystemResetWarning,0833.0,5.00,000.00,021.7,020.9,000.0,030.1,023.2,12.2,0000.0,0005.58,0002.16,0001.67
2023-11-01 15:12:00,SystemResetWarning,0833.0,5.01,000.00,021.7,020.9,000.0,030.1,023.2,13.3,0000.0,0005.74,0002.24,0001.70
2023-11-01 15:13:00,SystemResetWarning,0833.2,5.00,000.00,021.7,020.9,000.0,030.1,023.2,12.9,0000.0,0005.05,0002.26,0001.72
2023-11-01 15:14:00,SystemResetWarning,0833.1,5.01,000.00,021.8,020.9,000.0,030.1,023.2,13.7,0000.0,0004.46,0002.35,0001.78
2023-11-01 15:15:00,SystemResetWarning,0833.1,5.00,000.00,021.8,020.9,000.0,030.1,023.2,13.9,0000.0,0004.35,0002.41,0001.85
2023-11-01 15:16:00,SystemResetWarning,0833.1,4.99,000.00,021.8,020.9,000.0,030.1,023.2,14.3,0000.0,0004.28,0002.43,0001.91
2023-11-01 15:17:00,SystemResetWarning,0833.0,5.00,000.00,021.8,020.9,000.0,030.1,023.2,13.8,0000.0,0004.14,0002.39,0001.92
2023-11-01 15:18:00,SystemResetWarning,0833.3,4.99,000.00,021.8,020.9,000.0,030.1,023.2,13.8,0000.0,0004.16,0002.40,0001.96
2023-11-01 15:19:00,SystemResetWarning,0833.1,5.00,000.00,021.8,020.9,000.0,030.1,023.2,13.3,0000.0,0004.00,0002.35,0001.95
2023-11-01 15:20:00,SystemResetWarning,0833.0,5.00,000.00,021.8,020.9,000.0,030.1,023.2,13.6,0000.0,0003.93,0002.32,0001.93
2023-11-01 15:21:00,SystemResetWarning,0833.1,5.00,000.00,021.8,020.9,000.0,030.1,023.2,13.6,0000.0,0003.88,0002.31,0001.95
2023-11-01 15:22:00,SystemResetWarning,0833.0,5.01,000.00,021.8,020.9,000.0,030.1,023.2,13.9,0000.0,0003.54,0002.25,0001.92
2023-11-01 15:23:00,SystemResetWarning,0833.2,5.01,000.00,021.8,020.9,000.0,030.1,023.2,14.1,0000.0,0002.73,0002.10,0001.86
2023-11-01 15:24:00,SystemResetWarning,0833.2,5.00,000.00,021.8,020.9,000.0,030.1,023.2,13.3,0000.0,0002.62,0002.04,0001.85
2023-11-01 15:25:00,SystemResetWarning,0833.0,5.01,000.00,021.8,020.9,000.0,030.1,023.2,13.0,0000.0,0002.76,0002.02,0001.84
2023-11-01 15:26:00,SystemResetWarning,0833.3,4.99,000.00,021.8,020.9,000.0,030.2,023.2,13.8,0000.0,0002.65,0001.95,0001.80
2023-11-01 15:27:00,SystemResetWarning,0833.1,4.99,000.00,021.8,020.9,000.0,030.2,023.2,14.1,0000.0,0002.62,0001.93,0001.77
2023-11-01 15:28:00,SystemResetWarning,0833.3,5.00,000.00,021.8,020.9,000.0,030.2,023.2,13.8,0000.0,0002.72,0001.98,0001.80
2023-11-01 15:29:00,SystemResetWarning,0833.1,5.01,000.00,021.8,020.9,000.0,030.2,023.2,13.7,0000.0,0003.00,0002.01,0001.81
2023-11-01 15:30:00,SystemResetWarning,0833.2,5.01,000.00,021.8,020.9,000.0,030.2,023.2,13.4,0000.0,0003.22,0002.08,0001.85
2023-11-01 15:31:00,SystemResetWarning,0833.1,5.00,000.00,021.8,020.9,000.0,030.2,023.3,13.5,0000.0,0003.40,0002.13,0001.87
2023-11-01 15:32:00,SystemResetWarning,0833.0,4.99,000.00,021.8,020.9,000.0,030.2,023.2,12.9,0000.0,0003.46,0002.15,0001.87
2023-11-01 15:33:00,SystemResetWarning,0833.0,4.99,000.00,021.8,020.9,000.0,030.2,023.2,13.2,0000.0,0003.59,0002.22,0001.91
2023-11-01 15:34:00,SystemResetWarning,0833.0,5.00,000.00,021.8,020.9,000.0,030.2,023.3,13.2,0000.0,0003.81,0002.33,0001.99
2023-11-01 15:35:00,SystemResetWarning,0833.0,5.00,000.00,021.8,020.9,000.0,030.2,023.3,12.9,0000.0,0004.03,0002.41,0001.99
2023-11-01 15:36:00,SystemResetWarning,0833.0,5.01,000.00,021.8,021.0,000.0,030.2,023.3,12.3,0000.0,0004.49,0002.45,0001.98
2023-11-01 15:37:00,SystemResetWarning,0833.2,5.00,000.00,021.8,021.0,000.0,030.2,023.3,13.0,0000.0,0005.65,0002.53,0001.99
2023-11-01 15:38:00,SystemResetWarning,0833.0,5.00,000.00,021.9,021.0,000.0,030.2,023.2,12.9,0000.0,0007.00,0002.57,0002.00
2023-11-01 15:39:00,SystemResetWarning,0833.4,5.00,000.00,021.9,021.0,000.0,030.2,023.3,13.8,0000.0,0007.21,0002.55,0001.96
2023-11-01 15:40:00,SystemResetWarning,0833.0,5.00,000.00,021.9,021.0,000.0,030.2,023.3,14.1,0000.0,0006.89,0002.48,0001.91
2023-11-01 15:41:00,SystemResetWarning,0833.0,4.98,000.00,021.9,021.0,000.0,030.2,023.3,13.9,0000.0,0006.80,0002.45,0001.86
2023-11-01 15:42:00,SystemResetWarning,0832.9,5.00,000.00,021.9,021.0,000.0,030.2,023.3,12.9,0000.0,0006.68,0002.41,0001.82
2023-11-01 15:43:00,SystemResetWarning,0832.9,5.00,000.00,021.9,021.0,000.0,030.2,023.3,12.6,0000.0,0006.71,0002.41,0001.81
2023-11-01 15:44:00,SystemResetWarning,0832.9,5.01,000.00,021.9,021.0,000.0,030.2,023.3,11.9,0000.0,0006.63,0002.35,0001.78
2023-11-01 15:45:00,SystemResetWarning,0833.0,5.00,000.00,021.9,021.0,000.0,030.2,023.3,11.6,0000.0,0006.34,0002.25,0001.72
2023-11-01 15:46:00,SystemResetWarning,0833.4,5.00,000.00,021.9,021.0,000.0,030.2,023.3,11.3,0000.0,0006.18,0002.19,0001.70
2023-11-01 15:47:00,SystemResetWarning,0833.1,5.00,000.00,021.9,021.0,000.0,030.2,023.3,11.3,0000.0,0005.80,0002.20,0001.69
2023-11-01 15:48:00,SystemResetWarning,0833.3,5.00,000.00,021.9,021.0,000.0,030.2,023.3,11.2,0000.0,0004.75,0002.12,0001.67
2023-11-01 15:49:00,SystemResetWarning,0833.4,5.00,000.00,021.9,021.0,000.0,030.2,023.3,11.1,0000.0,0003.72,0002.14,0001.65
2023-11-01 15:50:00,SystemResetWarning,0833.4,5.00,000.00,021.9,021.0,000.0,030.3,023.3,11.9,0000.0,0003.35,0002.19,0001.65
2023-11-01 15:51:00,SystemResetWarning,0833.3,5.00,000.00,021.9,021.0,000.0,030.3,023.3,11.6,0000.0,0003.45,0002.22,0001.64
2023-11-01 15:52:00,SystemResetWarning,0833.4,5.00,000.00,021.9,021.0,000.0,030.3,023.3,11.4,0000.0,0003.51,0002.26,0001.65
2023-11-01 15:53:00,SystemResetWarning,0833.0,5.00,000.00,021.9,021.0,000.0,030.3,023.3,12.2,0000.0,0003.61,0002.28,0001.66
2023-11-01 15:54:00,SystemResetWarning,0833.2,5.00,000.00,021.9,021.0,000.0,030.3,023.3,12.6,0000.0,0003.79,0002.25,0001.64
2023-11-01 15:55:00,SystemResetWarning,0833.4,5.00,000.00,021.9,021.0,000.0,030.3,023.3,12.1,0000.0,0004.27,0002.26,0001.62
2023-11-01 15:56:00,SystemResetWarning,0833.1,5.00,000.00,021.9,021.0,000.0,030.3,023.3,11.9,0000.0,0004.48,0002.30,0001.61
2023-11-01 15:57:00,SystemResetWarning,0833.1,5.00,000.00,021.9,021.0,000.0,030.3,023.3,13.0,0000.0,0005.36,0002.27,0001.60
2023-11-01 15:58:00,SystemResetWarning,0833.3,5.00,000.00,021.9,021.0,000.0,030.3,023.3,12.7,0000.0,0006.29,0002.22,0001.57
2023-11-01 15:59:00,SystemResetWarning,0833.3,5.01,000.00,021.9,021.0,000.0,030.3,023.4,12.5,0000.0,0006.89,0002.23,0001.56
